Time,TemperatureF,DewpointF,PressureIn,WindDirection,WindDirectionDegrees,WindSpeedMPH,WindSpeedGustMPH,Humidity,HourlyPrecipIn,Conditions,Clouds,dailyrainin,SoftwareType,DateUTC
2013-09-23 00:10:00,49.8,38.0,29.53,WNW,285,0.0,-999.0,64,-99.99,,,0.23,weatherlink.com 1.10,2013-09-23 06:10:00,
2013-09-23 00:25:00,48.0,39.0,29.54,WNW,285,0.0,-999.0,71,-99.99,,,0.00,weatherlink.com 1.10,2013-09-23 06:25:00,
2013-09-23 00:40:00,47.0,39.0,29.50,WNW,285,0.0,-999.0,74,-99.99,,,0.00,weatherlink.com 1.10,2013-09-23 06:40:00,
2013-09-23 00:55:00,46.4,40.0,29.49,WNW,285,0.0,-999.0,79,-99.99,,,0.00,weatherlink.com 1.10,2013-09-23 06:55:00,
2013-09-23 01:10:00,46.0,40.0,29.50,WNW,285,0.0,-999.0,80,-99.99,,,0.00,weatherlink.com 1.10,2013-09-23 07:10:00,
2013-09-23 01:25:00,45.7,40.0,29.51,WNW,285,0.0,-999.0,81,-99.99,,,0.00,weatherlink.com 1.10,2013-09-23 07:25:00,
2013-09-23 01:40:00,44.6,39.0,29.52,WNW,285,0.0,-999.0,81,-99.99,,,0.00,weatherlink.com 1.10,2013-09-23 07:40:00,
2013-09-23 01:55:00,43.6,39.0,29.54,WNW,285,0.0,-999.0,84,-99.99,,,0.00,weatherlink.com 1.10,2013-09-23 07:55:00,
2013-09-23 02:10:00,43.8,39.0,29.54,WNW,285,0.0,-999.0,84,-99.99,,,0.00,weatherlink.com 1.10,2013-09-23 08:10:00,
2013-09-23 02:25:00,43.6,40.0,29.53,WNW,285,0.0,-999.0,86,-99.99,,,0.00,weatherlink.com 1.10,2013-09-23 08:25:00,
2013-09-23 02:40:00,44.3,40.0,29.55,WNW,285,0.0,-999.0,86,-99.99,,,0.00,weatherlink.com 1.10,2013-09-23 08:40:00,
2013-09-23 02:55:00,44.2,40.0,29.55,NNW,338,1.0,-999.0,85,-99.99,,,0.00,weatherlink.com 1.10,2013-09-23 08:55:00,
2013-09-23 03:11:00,43.5,39.0,29.55,North,11,0.0,-999.0,85,-99.99,,,0.00,weatherlink.com 1.10,2013-09-23 09:11:00,
2013-09-23 03:26:00,42.9,39.0,29.57,North,11,0.0,-999.0,86,-99.99,,,0.00,weatherlink.com 1.10,2013-09-23 09:26:00,
2013-09-23 03:41:00,42.3,38.0,29.60,North,11,0.0,-999.0,86,-99.99,,,0.00,weatherlink.com 1.10,2013-09-23 09:41:00,
2013-09-23 03:56:00,42.1,39.0,29.62,North,11,2.0,-999.0,87,-99.99,,,0.00,weatherlink.com 1.10,2013-09-23 09:56:00,
2013-09-23 04:11:00,41.9,39.0,29.62,North,11,0.0,-999.0,88,-99.99,,,0.00,weatherlink.com 1.10,2013-09-23 10:11:00,
2013-09-23 04:26:00,41.5,38.0,29.62,North,11,0.0,-999.0,88,-99.99,,,0.00,weatherlink.com 1.10,2013-09-23 10:26:00,
2013-09-23 04:41:00,41.2,38.0,29.68,North,11,0.0,-999.0,88,-99.99,,,0.00,weatherlink.com 1.10,2013-09-23 10:41:00,
2013-09-23 04:56:00,41.8,39.0,29.69,North,11,0.0,-999.0,89,-99.99,,,0.00,weatherlink.com 1.10,2013-09-23 10:56:00,
2013-09-23 05:11:00,42.1,39.0,29.69,NNE,13,1.0,-999.0,89,-99.99,,,0.00,weatherlink.com 1.10,2013-09-23 11:11:00,
2013-09-23 05:26:00,41.6,38.0,29.70,NNE,13,0.0,-999.0,88,-99.99,,,0.00,weatherlink.com 1.10,2013-09-23 11:26:00,
2013-09-23 05:42:00,41.5,39.0,29.70,NNE,13,0.0,-999.0,89,-99.99,,,0.00,weatherlink.com 1.10,2013-09-23 11:42:00,
2013-09-23 05:57:00,41.1,38.0,29.70,NNE,13,0.0,-999.0,89,-99.99,,,0.00,weatherlink.com 1.10,2013-09-23 11:57:00,
2013-09-23 06:11:00,40.9,38.0,29.70,NNE,13,0.0,-999.0,90,-99.99,,,0.00,weatherlink.com 1.10,2013-09-23 12:11:00,
2013-09-23 06:26:00,40.5,38.0,29.71,NNE,13,0.0,-999.0,89,-99.99,,,0.00,weatherlink.com 1.10,2013-09-23 12:26:00,
2013-09-23 06:42:00,40.1,38.0,29.71,NNE,13,0.0,-999.0,90,-99.99,,,0.00,weatherlink.com 1.10,2013-09-23 12:42:00,
2013-09-23 07:01:00,39.6,37.0,29.72,NNE,13,0.0,-999.0,90,-99.99,,,0.00,weatherlink.com 1.10,2013-09-23 13:01:00,
2013-09-23 07:13:00,39.9,38.0,29.73,NNE,13,0.0,-999.0,91,-99.99,,,0.00,weatherlink.com 1.10,2013-09-23 13:13:00,
2013-09-23 07:28:00,41.2,39.0,29.73,NNE,13,0.0,-999.0,91,-99.99,,,0.00,weatherlink.com 1.10,2013-09-23 13:28:00,
2013-09-23 07:42:00,42.8,41.0,29.76,NNE,13,0.0,-999.0,92,-99.99,,,0.00,weatherlink.com 1.10,2013-09-23 13:42:00,
2013-09-23 07:57:00,45.5,43.0,29.75,NNE,13,0.0,-999.0,89,-99.99,,,0.01,weatherlink.com 1.10,2013-09-23 13:57:00,
2013-09-23 08:12:00,46.7,43.0,29.74,NNE,13,0.0,-999.0,86,-99.99,,,0.01,weatherlink.com 1.10,2013-09-23 14:12:00,
2013-09-23 08:42:00,48.8,43.0,29.75,NNE,13,0.0,-999.0,81,-99.99,,,0.01,weatherlink.com 1.10,2013-09-23 14:42:00,
2013-09-23 08:58:00,51.1,44.0,29.74,NNE,13,0.0,-999.0,76,-99.99,,,0.01,weatherlink.com 1.10,2013-09-23 14:58:00,
2013-09-23 09:13:00,53.2,44.0,29.73,NNE,13,1.0,-999.0,71,-99.99,,,0.01,weatherlink.com 1.10,2013-09-23 15:13:00,
2013-09-23 09:28:00,55.0,42.0,29.72,West,272,6.0,-999.0,63,-99.99,,,0.01,weatherlink.com 1.10,2013-09-23 15:28:00,
2013-09-23 09:44:00,57.2,41.0,29.73,West,276,9.0,-999.0,56,-99.99,,,0.01,weatherlink.com 1.10,2013-09-23 15:44:00,
2013-09-23 09:59:00,58.1,41.0,29.72,West,269,9.0,-999.0,53,-99.99,,,0.01,weatherlink.com 1.10,2013-09-23 15:59:00,
2013-09-23 10:14:00,58.9,40.0,29.73,WNW,285,11.0,-999.0,50,-99.99,,,0.01,weatherlink.com 1.10,2013-09-23 16:14:00,
2013-09-23 10:30:00,59.6,41.0,29.72,WNW,297,6.0,-999.0,50,-99.99,,,0.01,weatherlink.com 1.10,2013-09-23 16:30:00,
2013-09-23 10:45:00,60.7,41.0,29.72,NNW,330,7.0,-999.0,48,-99.99,,,0.01,weatherlink.com 1.10,2013-09-23 16:45:00,
2013-09-23 10:59:00,60.4,38.0,29.73,West,276,17.0,-999.0,44,-99.99,,,0.01,weatherlink.com 1.10,2013-09-23 16:59:00,
2013-09-23 11:14:00,61.5,40.0,29.73,NW,320,10.0,-999.0,46,-99.99,,,0.01,weatherlink.com 1.10,2013-09-23 17:14:00,
2013-09-23 11:30:00,62.1,38.0,29.72,NNW,327,11.0,-999.0,41,-99.99,,,0.01,weatherlink.com 1.10,2013-09-23 17:30:00,
2013-09-23 12:00:00,63.1,39.0,29.71,North,355,6.0,-999.0,41,-99.99,,,0.01,weatherlink.com 1.10,2013-09-23 18:00:00,
2013-09-23 12:16:00,63.7,38.0,29.71,West,269,11.0,-999.0,39,-99.99,,,0.01,weatherlink.com 1.10,2013-09-23 18:16:00,
2013-09-23 12:30:00,63.9,38.0,29.71,West,276,13.0,-999.0,39,-99.99,,,0.01,weatherlink.com 1.10,2013-09-23 18:30:00,
2013-09-23 12:46:00,64.5,36.0,29.72,West,281,10.0,-999.0,35,-99.99,,,0.01,weatherlink.com 1.10,2013-09-23 18:46:00,
2013-09-23 13:01:00,64.8,37.0,29.73,WNW,297,5.0,-999.0,36,-99.99,,,0.01,weatherlink.com 1.10,2013-09-23 19:01:00,
2013-09-23 13:15:00,65.8,38.0,29.73,WNW,293,13.0,-999.0,36,-99.99,,,0.01,weatherlink.com 1.10,2013-09-23 19:15:00,
2013-09-23 13:31:00,65.6,38.0,29.72,NW,318,6.0,-999.0,36,-99.99,,,0.01,weatherlink.com 1.10,2013-09-23 19:31:00,
2013-09-23 13:46:00,66.0,37.0,29.73,West,259,10.0,-999.0,35,-99.99,,,0.01,weatherlink.com 1.10,2013-09-23 19:46:00,
2013-09-23 14:01:00,66.4,37.0,29.73,WNW,290,7.0,-999.0,34,-99.99,,,0.01,weatherlink.com 1.10,2013-09-23 20:01:00,
2013-09-23 14:16:00,67.3,39.0,29.73,NW,304,8.0,-999.0,35,-99.99,,,0.01,weatherlink.com 1.10,2013-09-23 20:16:00,
2013-09-23 14:33:00,67.3,37.0,29.73,WNW,292,13.0,-999.0,33,-99.99,,,0.01,weatherlink.com 1.10,2013-09-23 20:33:00,
2013-09-23 14:46:00,66.9,35.0,29.73,WNW,303,7.0,-999.0,31,-99.99,,,0.01,weatherlink.com 1.10,2013-09-23 20:46:00,
2013-09-23 15:03:00,67.6,35.0,29.73,West,280,12.0,-999.0,30,-99.99,,,0.01,weatherlink.com 1.10,2013-09-23 21:03:00,
2013-09-23 15:17:00,67.6,35.0,29.73,WNW,303,9.0,-999.0,30,-99.99,,,0.01,weatherlink.com 1.10,2013-09-23 21:17:00,
2013-09-23 15:33:00,67.8,35.0,29.73,West,274,14.0,-999.0,30,-99.99,,,0.01,weatherlink.com 1.10,2013-09-23 21:33:00,
2013-09-23 15:47:00,68.1,35.0,29.73,WNW,298,14.0,-999.0,29,-99.99,,,0.01,weatherlink.com 1.10,2013-09-23 21:47:00,
2013-09-23 16:02:00,68.1,35.0,29.73,WNW,284,15.0,-999.0,29,-99.99,,,0.01,weatherlink.com 1.10,2013-09-23 22:02:00,
2013-09-23 16:18:00,68.4,35.0,29.74,WNW,296,10.0,-999.0,29,-99.99,,,0.01,weatherlink.com 1.10,2013-09-23 22:18:00,
2013-09-23 16:33:00,68.3,35.0,29.74,NW,323,9.0,-999.0,29,-99.99,,,0.01,weatherlink.com 1.10,2013-09-23 22:33:00,
2013-09-23 16:47:00,68.4,34.0,29.74,West,280,6.0,-999.0,28,-99.99,,,0.01,weatherlink.com 1.10,2013-09-23 22:47:00,
2013-09-23 17:02:00,68.3,35.0,29.74,WNW,293,11.0,-999.0,29,-99.99,,,0.01,weatherlink.com 1.10,2013-09-23 23:02:00,
2013-09-23 17:18:00,68.3,33.0,29.75,WNW,293,7.0,-999.0,27,-99.99,,,0.01,weatherlink.com 1.10,2013-09-23 23:18:00,
2013-09-23 17:33:00,68.3,34.0,29.75,West,269,11.0,-999.0,28,-99.99,,,0.01,weatherlink.com 1.10,2013-09-23 23:33:00,
2013-09-23 17:48:00,67.6,32.0,29.77,WNW,293,6.0,-999.0,27,-99.99,,,0.01,weatherlink.com 1.10,2013-09-23 23:48:00,
2013-09-23 18:03:00,66.8,34.0,29.77,West,262,12.0,-999.0,30,-99.99,,,0.01,weatherlink.com 1.10,2013-09-24 00:03:00,
2013-09-23 18:18:00,66.4,35.0,29.79,West,268,7.0,-999.0,31,-99.99,,,0.01,weatherlink.com 1.10,2013-09-24 00:18:00,
2013-09-23 18:33:00,65.8,33.0,29.79,West,276,7.0,-999.0,30,-99.99,,,0.01,weatherlink.com 1.10,2013-09-24 00:33:00,
2013-09-23 18:48:00,65.0,34.0,29.82,NW,309,4.0,-999.0,32,-99.99,,,0.01,weatherlink.com 1.10,2013-09-24 00:48:00,
2013-09-23 19:04:00,63.7,35.0,29.82,WNW,294,7.0,-999.0,34,-99.99,,,0.01,weatherlink.com 1.10,2013-09-24 01:04:00,
2013-09-23 19:19:00,63.1,36.0,29.84,WNW,293,7.0,-999.0,37,-99.99,,,0.01,weatherlink.com 1.10,2013-09-24 01:19:00,
2013-09-23 19:33:00,62.4,36.0,29.81,WNW,283,0.0,-999.0,38,-99.99,,,0.01,weatherlink.com 1.10,2013-09-24 01:33:00,
2013-09-23 19:48:00,60.9,36.0,29.82,WNW,283,0.0,-999.0,40,-99.99,,,0.01,weatherlink.com 1.10,2013-09-24 01:48:00,
2013-09-23 20:03:00,59.8,37.0,29.84,WNW,283,0.0,-999.0,43,-99.99,,,0.01,weatherlink.com 1.10,2013-09-24 02:03:00,
2013-09-23 20:18:00,59.5,37.0,29.85,WNW,283,0.0,-999.0,43,-99.99,,,0.01,weatherlink.com 1.10,2013-09-24 02:18:00,
2013-09-23 20:34:00,59.9,35.0,29.82,WNW,283,0.0,-999.0,40,-99.99,,,0.01,weatherlink.com 1.10,2013-09-24 02:34:00,
2013-09-23 20:49:00,60.5,36.0,29.82,NW,321,0.0,-999.0,41,-99.99,,,0.01,weatherlink.com 1.10,2013-09-24 02:49:00,
2013-09-23 21:04:00,59.6,36.0,29.83,NW,321,0.0,-999.0,42,-99.99,,,0.01,weatherlink.com 1.10,2013-09-24 03:04:00,
2013-09-23 21:19:00,58.7,37.0,29.84,WNW,288,3.0,-999.0,44,-99.99,,,0.01,weatherlink.com 1.10,2013-09-24 03:19:00,
2013-09-23 21:34:00,58.7,36.0,29.81,WNW,290,5.0,-999.0,43,-99.99,,,0.01,weatherlink.com 1.10,2013-09-24 03:34:00,
2013-09-23 21:49:00,58.0,37.0,29.82,WNW,289,4.0,-999.0,46,-99.99,,,0.01,weatherlink.com 1.10,2013-09-24 03:49:00,
2013-09-23 22:04:00,56.5,38.0,29.83,WNW,286,0.0,-999.0,51,-99.99,,,0.01,weatherlink.com 1.10,2013-09-24 04:04:00,
2013-09-23 22:19:00,54.2,39.0,29.85,WNW,286,0.0,-999.0,56,-99.99,,,0.01,weatherlink.com 1.10,2013-09-24 04:19:00,
2013-09-23 22:34:00,53.2,39.0,29.85,NNE,32,0.0,-999.0,58,-99.99,,,0.01,weatherlink.com 1.10,2013-09-24 04:34:00,
2013-09-23 22:49:00,51.6,39.0,29.85,NNE,32,2.0,-999.0,63,-99.99,,,0.01,weatherlink.com 1.10,2013-09-24 04:49:00,
2013-09-23 23:04:00,49.6,39.0,29.86,NE,34,3.0,-999.0,68,-99.99,,,0.01,weatherlink.com 1.10,2013-09-24 05:04:00,
2013-09-23 23:19:00,48.9,40.0,29.87,NE,34,2.0,-999.0,72,-99.99,,,0.01,weatherlink.com 1.10,2013-09-24 05:19:00,
2013-09-23 23:34:00,48.3,40.0,29.86,NNE,32,0.0,-999.0,72,-99.99,,,0.01,weatherlink.com 1.10,2013-09-24 05:34:00,
2013-09-23 23:49:00,48.5,40.0,29.86,NNE,32,0.0,-999.0,72,-99.99,,,0.01,weatherlink.com 1.10,2013-09-24 05:49:00,